FW5264 Weather Reports


time (UTC)temp
C
wind
direction
speed
KPH
gust
KPH
rain 1hr
cm
rain 24hr
cm
rain mn
cm
humidity
%
barometer
mb
20260507182225 16 196 3.2 9.7 0.00 0.81 0.41 81 1015.4
20260507182127 16 177 1.6 9.7 0.00 0.81 0.41 80 1015.5
20260507181126 16 202 1.6 3.2 0.00 0.81 0.41 81 1015.6
20260507180128 16 191 4.8 8.0 0.00 0.81 0.41 82 1015.4
20260507175226 15 186 6.4 12.9 0.00 0.81 0.41 83 1015.6
20260507174228 16 191 3.2 8.0 0.00 0.81 0.41 82 1015.8
20260507173324 16 199 8.0 17.7 0.00 0.81 0.41 84 1015.7
20260507172324 16 187 1.6 6.4 0.00 0.81 0.41 84 1015.9
20260507171327 16 191 4.8 9.7 0.00 0.81 0.41 86 1016.1
20260507171225 16 192 1.6 11.3 0.00 0.81 0.41 86 1016.0
20260507170225 16 176 1.6 4.8 0.00 0.81 0.41 86 1016.1
20260507165324 16 191 0.0 0.0 0.00 0.81 0.41 86 1016.1
20260507164326 16 179 1.6 6.4 0.00 0.81 0.41 88 1016.4
20260507164241 16 190 1.6 4.8 0.00 0.81 0.41 87 1016.3
20260507163326 15 27 0.0 3.2 0.00 0.81 0.41 88 1016.4
20260507161424 15 180 0.0 3.2 0.00 0.81 0.41 89 1016.8
20260507160427 14 78 0.0 3.2 0.00 0.81 0.41 89 1016.8
20260507155425 14 186 0.0 4.8 0.00 0.81 0.41 89 1016.7
20260507154428 13 180 0.0 0.0 0.00 0.81 0.41 90 1017.0
20260507153427 13 179 1.6 4.8 0.00 0.81 0.41 90 1017.0
20260507152440 13 156 6.4 11.3 0.00 0.81 0.41 89 1017.0
20260507151426 13 261 1.6 9.7 0.00 0.81 0.41 91 1017.2
20260507145441 12 274 0.0 3.2 0.00 0.81 0.41 91 1017.2
20260507144525 12 292 0.0 3.2 0.00 0.81 0.41 91 1017.2
20260507142624 11 302 3.2 9.7 0.03 0.81 0.41 91 1017.1
20260507141626 10 317 1.6 4.8 0.03 0.81 0.41 91 1017.7
20260507140628 10 165 0.0 4.8 0.03 0.81 0.41 90 1017.2
20260507134725 9 28 0.0 0.0 0.03 0.81 0.41 89 1017.4
20260507133726 9 292 0.0 0.0 0.00 0.79 0.38 90 1017.4
20260507132726 9 16 3.2 9.7 0.00 0.79 0.38 90 1017.3
20260507131742 8 44 0.0 1.6 0.00 0.79 0.38 89 1017.2
20260507130742 8 343 0.0 0.0 0.00 0.79 0.38 89 1016.7
20260507125826 8 207 3.2 11.3 0.00 0.79 0.38 89 1017.1
20260507124924 8 10 0.0 3.2 0.03 0.79 0.38 90 1016.8
20260507123926 9 33 3.2 8.0 0.03 0.79 0.38 90 1017.3
20260507122927 9 25 1.6 9.7 0.03 0.79 0.38 90 1017.4
20260507122024 9 59 0.0 3.2 0.05 0.79 0.38 89 1017.4
20260507121124 9 345 0.0 4.8 0.08 0.79 0.38 89 1017.4
20260507120126 9 28 4.8 11.3 0.08 0.79 0.38 90 1017.0
20260507115142 9 28 4.8 12.9 0.05 0.76 0.36 90 1017.0
20260507114125 9 19 3.2 11.3 0.05 0.76 0.36 90 1016.9
20260507113124 9 62 0.0 1.6 0.05 0.76 0.36 90 1016.9
20260507111126 10 12 1.6 6.4 0.00 0.71 0.30 90 1016.8
20260507110125 10 39 3.2 9.7 0.00 0.71 0.30 90 1016.3
20260507105126 10 74 0.0 4.8 0.03 0.71 0.30 89 1016.2
20260507103126 10 6 1.6 9.7 0.05 0.71 0.30 90 1016.2
20260507102224 10 21 1.6 8.0 0.23 0.71 0.30 89 1016.2
20260507101225 10 334 0.0 3.2 0.28 0.71 0.30 90 1015.9
20260507100226 11 30 1.6 6.4 0.30 0.71 0.30 90 1015.5
20260507095227 11 8 4.8 11.3 0.28 0.69 0.28 90 1015.3
20260507094228 11 53 0.0 9.7 0.28 0.69 0.28 90 1014.8
20260507093224 11 41 1.6 4.8 0.25 0.66 0.25 90 1014.3
20260507092226 11 280 4.8 17.7 0.08 0.48 0.08 90 1015.0
20260507091227 11 137 4.8 9.7 0.03 0.43 0.03 90 1015.0
20260507090227 11 22 0.0 3.2 0.00 0.41 0.00 90 1014.8
20260507085325 11 22 0.0 4.8 0.00 0.41 0.00 90 1014.8
20260507082341 11 223 1.6 4.8 0.00 0.41 0.00 88 1015.6
20260507081340 11 247 0.0 0.0 0.00 0.41 0.00 89 1014.9
20260507080325 11 182 0.0 6.4 0.00 0.41 0.00 89 1015.0
20260507075424 11 218 0.0 1.6 0.00 0.41 0.00 89 1015.1
20260507074426 11 225 0.0 0.0 0.00 0.41 0.00 89 1015.1
20260507073426 11 197 0.0 3.2 0.00 0.41 0.00 89 1015.0
20260507072425 11 247 0.0 0.0 0.00 0.41 0.00 88 1015.0
20260507071424 11 292 0.0 0.0 0.00 0.41 0.00 89 1014.9
20260507070440 11 180 0.0 0.0 0.00 0.41 0.00 89 1015.3
20260507065427 11 247 0.0 3.2 0.00 0.41 0.00 88 1015.5
20260507064425 11 211 0.0 1.6 0.00 0.41 0.00 89 1015.5
20260507062427 12 247 0.0 0.0 0.00 0.41 0.00 88 1015.5
20260507060426 12 194 3.2 11.3 0.00 0.41 0.00 88 1015.3
20260507055425 12 178 0.0 3.2 0.00 0.41 0.00 87 1015.4
20260507054425 12 221 3.2 14.5 0.00 0.41 0.00 87 1015.8
20260507052525 12 229 0.0 1.6 0.00 0.41 0.00 88 1016.0
20260507051525 12 247 1.6 6.4 0.00 0.41 0.00 87 1015.9
20260507050542 12 220 0.0 4.8 0.00 0.41 0.00 88 1016.4
20260507045626 12 247 0.0 1.6 0.00 0.41 0.00 87 1016.5
20260507044725 12 207 3.2 8.0 0.00 0.41 0.00 87 1016.5
20260507043725 12 209 1.6 6.4 0.00 0.41 0.00 87 1016.8
20260507042726 12 212 0.0 3.2 0.00 0.41 0.00 87 1016.5
20260507041725 12 233 4.8 11.3 0.00 0.41 0.00 87 1016.6
20260507040727 12 224 3.2 8.0 0.00 0.41 0.00 86 1016.8
20260507034907 12 215 1.6 8.0 0.00 0.41 0.41 86 1016.9
20260507032910 12 217 6.4 11.3 0.00 0.41 0.41 86 1016.7
20260507032009 12 221 8.0 16.1 0.00 0.41 0.41 86 1017.1
20260507031025 12 224 6.4 11.3 0.00 0.41 0.41 86 1016.8
20260507030008 12 230 6.4 16.1 0.00 0.41 0.41 85 1016.7
20260507025011 12 228 8.0 14.5 0.00 0.41 0.41 85 1016.7
20260507024109 12 218 8.0 14.5 0.00 0.41 0.41 85 1017.1
20260507023109 12 218 3.2 6.4 0.00 0.41 0.41 85 1017.1
20260507023010 12 220 3.2 8.0 0.00 0.41 0.41 85 1017.3
20260507022011 12 220 4.8 9.7 0.00 0.41 0.41 84 1017.3
20260507020925 12 236 3.2 6.4 0.00 0.41 0.41 84 1017.5
20260507020011 12 213 6.4 12.9 0.00 0.41 0.41 84 1017.5
20260507015010 12 230 3.2 9.7 0.00 0.41 0.41 84 1017.7
20260507012208 12 234 4.8 12.9 0.03 0.41 0.41 83 1018.0
20260507011210 12 229 6.4 11.3 0.10 0.41 0.41 83 1018.1
20260507010210 12 218 1.6 4.8 0.15 0.41 0.41 81 1018.0
20260507005209 12 217 6.4 25.7 0.25 0.41 0.41 82 1017.8
20260507003309 12 230 3.2 9.7 0.30 0.41 0.41 80 1017.8
20260507002310 12 225 1.6 9.7 0.28 0.38 0.38 81 1017.8
20260507001310 12 222 1.6 11.3 0.23 0.30 0.30 80 1017.8
20260506235410 12 227 3.2 6.4 0.13 0.15 0.15 80 1017.8
20260506234325 12 220 1.6 11.3 0.13 0.15 0.15 80 1017.6
20260506233409 12 214 6.4 12.9 0.10 0.10 0.10 79 1017.5
20260506232424 12 211 4.8 14.5 0.10 0.10 0.10 78 1017.6
20260506231510 12 214 4.8 11.3 0.08 0.08 0.08 78 1017.9
20260506230510 12 203 4.8 8.0 0.05 0.05 0.05 78 1018.1
20260506224510 12 217 6.4 16.1 0.03 0.03 0.03 78 1018.3
20260506223609 12 209 4.8 11.3 0.00 0.00 0.00 77 1018.3
20260506221709 12 204 6.4 20.9 0.00 0.00 0.00 77 1018.5
20260506215727 12 207 3.2 16.1 0.00 0.00 0.00 78 1018.3
20260506214808 12 231 6.4 11.3 0.00 0.00 0.00 78 1018.5
20260506213808 12 201 4.8 12.9 0.00 0.00 0.00 77 1018.5
20260506212811 13 213 3.2 8.0 0.00 0.00 0.00 76 1018.7
20260506211909 13 220 8.0 19.3 0.00 0.00 0.00 77 1018.9
20260506210911 13 232 3.2 8.0 0.00 0.00 0.00 76 1018.6
20260506204911 13 208 3.2 6.4 0.00 0.00 0.00 77 1018.9
20260506204008 13 218 3.2 8.0 0.00 0.00 0.00 77 1018.9
20260506203010 13 214 1.6 6.4 0.00 0.00 0.00 76 1019.2
20260506201025 13 221 4.8 6.4 0.00 0.00 0.00 77 1019.2
20260506200109 13 215 6.4 16.1 0.00 0.00 0.00 76 1019.2
20260506194210 13 196 3.2 9.7 0.00 0.00 0.00 76 1019.6
20260506193309 13 214 4.8 11.3 0.00 0.00 0.00 75 1019.8
20260506192407 13 220 3.2 6.4 0.00 0.00 0.00 75 1019.9
20260506191410 13 207 3.2 6.4 0.00 0.00 0.00 76 1019.5
20260506190410 13 208 3.2 9.7 0.00 0.00 0.00 76 1019.6
20260506185409 13 216 1.6 4.8 0.00 0.00 0.00 76 1019.6
20260506183509 14 224 6.4 17.7 0.00 0.00 0.00 77 1020.0